• In Deutschland
  • Länderverzeichnis
  • Für 7 Tage
  • Wassertemperatur
  • Satellitenkarten
  • Wetterkarte
  • Widgets
  • user-avatar
    Anmelden

    Stündliche Wetter Barra

    Heute, 20 August, Sonntag

    Zeit Temperatur Niederschläge Wind Luftdruck Luftfeuchtigkeit
    00:00 +18°C° 0 mm 3 m/S 752 mmHg 88%
    01:00 +18°C° 0 mm 3 m/S 752 mmHg 89%
    02:00 +18°C° 0 mm 3 m/S 752 mmHg 85%
    03:00 +17°C° 0 mm 3 m/S 751 mmHg 81%
    04:00 +17°C° 0 mm 3 m/S 751 mmHg 81%
    05:00 +16°C° 0 mm 3 m/S 751 mmHg 73%
    06:00 +16°C° 0 mm 3 m/S 752 mmHg 66%
    07:00 +16°C° 0 mm 3 m/S 752 mmHg 59%
    08:00 +19°C° 0 mm 3 m/S 752 mmHg 52%
    09:00 +21°C° 0 mm 3 m/S 752 mmHg 45%
    10:00 +25°C° 0 mm 4 m/S 752 mmHg 38%
    11:00 +26°C° 0 mm 4 m/S 752 mmHg 36%
    12:00 +27°C° 0 mm 4 m/S 751 mmHg 34%
    13:00 +27°C° 0 mm 5 m/S 751 mmHg 32%
    14:00 +27°C° 0 mm 4 m/S 751 mmHg 35%
    15:00 +26°C° 0 mm 4 m/S 750 mmHg 38%
    16:00 +25°C° 0 mm 4 m/S 750 mmHg 41%
    17:00 +22°C° 0 mm 4 m/S 750 mmHg 52%
    18:00 +20°C° 0 mm 3 m/S 751 mmHg 63%
    19:00 +18°C° 0 mm 2 m/S 751 mmHg 74%
    20:00 +17°C° 0 mm 2 m/S 751 mmHg 78%
    21:00 +17°C° 0 mm 2 m/S 751 mmHg 81%
    22:00 +16°C° 0 mm 2 m/S 752 mmHg 84%
    23:00 +16°C° 0 mm 3 m/S 752 mmHg 85%

    Morgen, 21 August, Montag

    Zeit Temperatur Niederschläge Wind Luftdruck Luftfeuchtigkeit
    00:00 +16°C° 0 mm 3 m/S 752 mmHg 85%
    01:00 +16°C° 0 mm 3 m/S 752 mmHg 86%
    02:00 +16°C° 0 mm 3 m/S 751 mmHg 84%
    03:00 +16°C° 0 mm 3 m/S 751 mmHg 82%
    04:00 +17°C° 0 mm 3 m/S 751 mmHg 81%
    05:00 +17°C° 0 mm 3 m/S 751 mmHg 80%
    06:00 +16°C° 0 mm 3 m/S 752 mmHg 79%
    07:00 +16°C° 0 mm 3 m/S 752 mmHg 78%
    08:00 +18°C° 0 mm 3 m/S 752 mmHg 69%
    09:00 +20°C° 0 mm 4 m/S 753 mmHg 60%
    10:00 +23°C° 0 mm 4 m/S 753 mmHg 51%
    11:00 +25°C° 0 mm 4 m/S 752 mmHg 49%
    12:00 +25°C° 0 mm 4 m/S 752 mmHg 47%
    13:00 +26°C° 0 mm 4 m/S 751 mmHg 45%
    14:00 +26°C° 0 mm 3 m/S 751 mmHg 47%
    15:00 +25°C° 0 mm 3 m/S 750 mmHg 49%
    16:00 +25°C° 0 mm 3 m/S 750 mmHg 51%
    17:00 +23°C° 0 mm 2 m/S 751 mmHg 60%
    18:00 +20°C° 0 mm 2 m/S 751 mmHg 69%
    19:00 +18°C° 0 mm 2 m/S 752 mmHg 78%
    20:00 +18°C° 0 mm 2 m/S 752 mmHg 82%
    21:00 +17°C° 0 mm 2 m/S 752 mmHg 85%
    22:00 +17°C° 0 mm 2 m/S 753 mmHg 89%
    23:00 +17°C° 0 mm 2 m/S 752 mmHg 90%

    übermorgen, 22 August, Dienstag

    Zeit Temperatur Niederschläge Wind Luftdruck Luftfeuchtigkeit
    00:00 +16°C° 0 mm 2 m/S 752 mmHg 91%
    01:00 +16°C° 0 mm 2 m/S 752 mmHg 92%
    02:00 +16°C° 0 mm 2 m/S 752 mmHg 93%
    03:00 +16°C° 0 mm 2 m/S 752 mmHg 94%
    04:00 +16°C° 0 mm 2 m/S 752 mmHg 95%
    05:00 +16°C° 0 mm 1 m/S 752 mmHg 95%
    06:00 +18°C° 0 mm 1 m/S 752 mmHg 96%
    07:00 +18°C° 0 mm 1 m/S 753 mmHg 96%
    08:00 +21°C° 0 mm 1 m/S 753 mmHg 83%
    09:00 +24°C° 0 mm 2 m/S 753 mmHg 70%
    10:00 +26°C° 0 mm 2 m/S 753 mmHg 57%
    11:00 +27°C° 0 mm 2 m/S 752 mmHg 54%
    12:00 +28°C° 0 mm 2 m/S 752 mmHg 51%
    13:00 +29°C° 0 mm 3 m/S 751 mmHg 47%
    14:00 +28°C° 0 mm 3 m/S 751 mmHg 50%
    15:00 +28°C° 0 mm 3 m/S 750 mmHg 53%
    16:00 +28°C° 0 mm 3 m/S 750 mmHg 56%
    17:00 +25°C° 0 mm 3 m/S 751 mmHg 66%
    18:00 +23°C° 0 mm 2 m/S 751 mmHg 77%
    19:00 +20°C° 0 mm 2 m/S 752 mmHg 88%
    20:00 +20°C° 0 mm 2 m/S 752 mmHg 90%
    21:00 +19°C° 0 mm 2 m/S 753 mmHg 92%
    22:00 +19°C° 0 mm 2 m/S 753 mmHg 94%
    23:00 +19°C° 0 mm 2 m/S 753 mmHg 94%

    23 August, Mittwoch

    Zeit Temperatur Niederschläge Wind Luftdruck Luftfeuchtigkeit
    00:00 +19°C° 0 mm 2 m/S 753 mmHg 94%
    01:00 +19°C° 0 mm 2 m/S 752 mmHg 95%
    02:00 +19°C° 0 mm 2 m/S 752 mmHg 94%
    03:00 +19°C° 0 mm 2 m/S 752 mmHg 94%
    04:00 +19°C° 0 mm 2 m/S 752 mmHg 94%
    05:00 +19°C° 0 mm 2 m/S 752 mmHg 94%
    06:00 +19°C° 0 mm 2 m/S 753 mmHg 94%
    07:00 +19°C° 0 mm 2 m/S 753 mmHg 94%
    08:00 +21°C° 0 mm 3 m/S 753 mmHg 85%
    09:00 +24°C° 0 mm 3 m/S 754 mmHg 77%
    10:00 +25°C° 0 mm 3 m/S 754 mmHg 69%
    11:00 +27°C° 0 mm 3 m/S 753 mmHg 62%
    12:00 +28°C° 0 mm 3 m/S 752 mmHg 56%
    13:00 +29°C° 0 mm 3 m/S 752 mmHg 50%
    14:00 +28°C° 0 mm 3 m/S 751 mmHg 51%
    15:00 +28°C° 0 mm 3 m/S 751 mmHg 52%
    16:00 +27°C° 0 mm 3 m/S 751 mmHg 53%
    17:00 +25°C° 0 mm 3 m/S 751 mmHg 63%
    18:00 +23°C° 0 mm 2 m/S 752 mmHg 74%
    19:00 +20°C° 0 mm 2 m/S 752 mmHg 84%
    20:00 +19°C° 0 mm 2 m/S 752 mmHg 87%
    21:00 +19°C° 0 mm 2 m/S 753 mmHg 90%
    22:00 +18°C° 0 mm 2 m/S 753 mmHg 93%
    23:00 +18°C° 0 mm 2 m/S 753 mmHg 94%

    24 August, Donnerstag

    Zeit Temperatur Niederschläge Wind Luftdruck Luftfeuchtigkeit
    00:00 +18°C° 0 mm 2 m/S 752 mmHg 95%
    01:00 +18°C° 0 mm 2 m/S 752 mmHg 95%
    02:00 +18°C° 0 mm 2 m/S 752 mmHg 96%
    03:00 +18°C° 0 mm 2 m/S 751 mmHg 96%
    04:00 +18°C° 0 mm 2 m/S 751 mmHg 96%
    05:00 +18°C° 0 mm 2 m/S 751 mmHg 96%
    06:00 +18°C° 0 mm 2 m/S 752 mmHg 96%
    07:00 +18°C° 0 mm 2 m/S 752 mmHg 95%
    08:00 +21°C° 0 mm 3 m/S 752 mmHg 84%
    09:00 +24°C° 0 mm 3 m/S 752 mmHg 72%
    10:00 +26°C° 0 mm 3 m/S 753 mmHg 61%
    11:00 +27°C° 0 mm 3 m/S 752 mmHg 56%
    12:00 +28°C° 0 mm 3 m/S 751 mmHg 51%
    13:00 +29°C° 0 mm 3 m/S 751 mmHg 46%
    14:00 +29°C° 0 mm 3 m/S 750 mmHg 46%
    15:00 +28°C° 0 mm 3 m/S 750 mmHg 47%
    16:00 +28°C° 0 mm 3 m/S 750 mmHg 47%
    17:00 +25°C° 0 mm 3 m/S 750 mmHg 58%
    18:00 +23°C° 0 mm 2 m/S 751 mmHg 68%
    19:00 +20°C° 0 mm 2 m/S 751 mmHg 78%
    20:00 +19°C° 0 mm 2 m/S 751 mmHg 82%
    21:00 +19°C° 0 mm 1 m/S 751 mmHg 85%
    22:00 +19°C° 0 mm 1 m/S 752 mmHg 89%
    23:00 +19°C° 0 mm 1 m/S 751 mmHg 89%

    25 August, Freitag

    Zeit Temperatur Niederschläge Wind Luftdruck Luftfeuchtigkeit
    00:00 +18°C° 0 mm 1 m/S 751 mmHg 88%
    01:00 +18°C° 0 mm 1 m/S 751 mmHg 88%
    02:00 +18°C° 0 mm 1 m/S 750 mmHg 89%
    03:00 +18°C° 0 mm 1 m/S 750 mmHg 89%
    04:00 +18°C° 0 mm 1 m/S 750 mmHg 90%
    05:00 +18°C° 0 mm 1 m/S 750 mmHg 89%
    06:00 +18°C° 0 mm 1 m/S 751 mmHg 89%
    07:00 +17°C° 0 mm 2 m/S 751 mmHg 89%
    08:00 +20°C° 0 mm 2 m/S 751 mmHg 76%
    09:00 +24°C° 0 mm 2 m/S 751 mmHg 63%
    10:00 +28°C° 0 mm 2 m/S 751 mmHg 51%
    11:00 +29°C° 0 mm 2 m/S 751 mmHg 48%
    12:00 +30°C° 0 mm 2 m/S 750 mmHg 44%
    13:00 +30°C° 0 mm 3 m/S 749 mmHg 41%
    14:00 +30°C° 0 mm 3 m/S 749 mmHg 43%
    15:00 +29°C° 0 mm 3 m/S 749 mmHg 45%
    16:00 +29°C° 0 mm 3 m/S 748 mmHg 48%
    17:00 +26°C° 0 mm 2 m/S 749 mmHg 59%
    18:00 +24°C° 0 mm 2 m/S 749 mmHg 70%
    19:00 +20°C° 0 mm 2 m/S 750 mmHg 82%
    20:00 +20°C° 0 mm 2 m/S 750 mmHg 85%
    21:00 +20°C° 0 mm 1 m/S 750 mmHg 88%
    22:00 +20°C° 0 mm 1 m/S 751 mmHg 91%
    23:00 +20°C° 0 mm 1 m/S 750 mmHg 92%
    Mehr zeigen